[[{"header":{"parameterUnit":"m.s-1","parameterCategory":1,"la1":30.2991,"la2":30.254,"lo1":-89.0895,"lo2":-89.0444,"dy":0.0017,"dx":0.0017,"nx":28,"ny":28,"refTime":"2025-09-02T21:00:00:Z","depth":0,"parameterNumber":2,"parameterNumberName":"U-component_of_WINDS"},"data":[0,0,0,0,0,0,0,0,0,0,0,0,0,0,0,0,0,0,0,0,0,0,0,0,0,0,0,0,0,0,0,0,0,0,0,0,0,0,0,0,0,0,0,0,0,0,0,0,0,0,0,0,0,0,0,0,0,0,1.4544,1.4543,0,1.4497,1.4496,1.4496,1.4457,1.4457,1.4456,1.4456,1.4407,1.4406,1.4405,0,0,0,0,0,0,0,0,0,0,0,0,0,1.4599,1.4598,1.4544,1.4543,1.4543,1.4497,1.4496,1.4496,1.4457,1.4457,1.4456,1.4456,1.4407,1.4406,1.4405,0,0,0,0,0,0,0,0,0,0,0,0,0,1.4566,1.4598,1.4544,1.4518,1.4515,1.4497,1.4496,1.4495,1.4457,1.4457,1.4456,1.4456,1.4408,1.4406,1.4405,1.4408,0,0,1.4401,1.44,0,0,0,0,0,0,0,0,1.4567,1.4564,1.4523,1.452,1.4517,1.4482,1.4497,1.4466,1.4458,1.4479,1.4456,1.4455,1.4433,1.4429,1.4422,1.4406,1.4404,1.4401,1.44,1.4399,1.4399,0,0,0,0,0,0,0,1.457,1.4565,1.4525,1.4522,1.4518,1.4508,1.4503,1.4491,1.446,1.4477,1.4475,1.4469,1.4431,1.4423,1.442,1.4403,1.4401,1.44,1.4399,1.4398,1.4385,1.4385,0,0,0,0,0,0,1.4576,1.4568,1.4527,1.4524,1.4541,1.4508,1.4502,1.4494,1.446,1.4454,1.447,1.4468,1.4426,1.4422,1.4418,1.4418,1.4399,1.4398,1.4397,1.4384,1.4385,1.4385,0,0,0,0,0,0,1.4578,1.4573,1.4529,1.4545,1.4538,1.4507,1.4499,1.4493,1.4485,1.4454,1.4448,1.4468,1.4425,1.442,1.441,1.4415,1.4397,1.4396,1.4384,1.4384,1.4385,1.4418,0,0,0,0,0,0,1.4579,1.4574,1.4575,1.4545,1.4538,1.4522,1.4499,1.4493,1.4483,1.448,1.4451,1.4445,1.4424,1.4413,1.4409,1.4413,1.4395,1.4383,1.4384,1.4385,1.4416,1.442,1.4423,0,0,0,0,0,1.4581,1.4587,1.4576,1.4571,1.4539,1.4523,1.4519,1.4494,1.4484,1.4484,1.4464,1.4446,1.4416,1.4412,1.4408,1.4411,1.4383,1.4384,1.4385,1.4415,1.4419,1.4422,0,0,0,0,0,0,1.4619,1.4583,1.457,1.4566,1.4548,1.4516,1.4517,1.45,1.4484,1.4482,1.4452,1.4446,1.4439,1.4424,1.4421,1.4411,1.4397,1.4397,1.4421,1.4425,1.4428,1.4431,1.4394,0,0,0,0,0,1.4627,1.4617,1.4586,1.4585,1.4577,1.4548,1.454,1.4523,1.4503,1.4495,1.4474,1.4455,1.4441,1.4432,1.4417,1.4414,1.4406,1.4414,1.4417,1.442,1.442,1.4415,1.4417,1.4389,1.4389,1.4389,0,0,1.4643,1.4622,1.4618,1.4592,1.4576,1.4565,1.4542,1.4533,1.4524,1.4494,1.4482,1.4466,1.4443,1.4435,1.4431,1.4423,1.4426,1.4422,1.4424,1.4423,1.4416,1.4419,1.4421,1.439,1.439,1.4389,0,0,1.4666,1.465,1.4647,1.4631,1.4606,1.4587,1.4586,1.4557,1.4545,1.4534,1.4509,1.4499,1.4476,1.4459,1.4447,1.4462,1.4444,1.4458,1.4474,1.4469,1.4472,1.4473,1.4476,1.4478,1.4459,1.4459,1.4459,0,1.4689,1.4673,1.4647,1.4638,1.4627,1.4598,1.4594,1.4579,1.4552,1.4544,1.4535,1.4503,1.4486,1.4473,1.4476,1.4469,1.4465,1.4461,1.4473,1.4475,1.4476,1.4479,1.448,1.446,1.446,1.446,1.446,0,1.4701,1.469,1.469,1.4663,1.4652,1.4645,1.4617,1.4609,1.4592,1.4573,1.456,1.4538,1.4517,1.4513,1.4497,1.4497,1.4492,1.4479,1.4464,1.4481,1.4483,1.4484,1.4463,1.4462,1.4462,1.4461,0,0,1.4747,1.4705,1.4705,1.4691,1.4662,1.4652,1.4643,1.4623,1.4615,1.4596,1.4587,1.4567,1.4554,1.4541,1.4522,1.4518,1.4528,1.4505,1.4504,1.4508,1.4524,1.4533,1.4535,1.4516,1.4516,1.4517,1.4525,0,1.4764,1.4747,1.4723,1.4713,1.4701,1.4673,1.4665,1.4646,1.4627,1.4614,1.4594,1.4579,1.4564,1.4555,1.455,1.4528,1.4531,1.4527,1.4506,1.4505,1.4511,1.4536,1.4546,1.4556,1.4526,1.4526,1.4526,0,1.4782,1.4764,1.4753,1.4722,1.4716,1.471,1.4688,1.4676,1.4652,1.4639,1.4623,1.4603,1.4591,1.4578,1.4559,1.4557,1.4547,1.4534,1.4534,1.453,1.4516,1.4531,1.4558,1.4559,1.4528,1.4527,1.4527,0,1.4813,1.4787,1.4776,1.4766,1.4731,1.4726,1.4711,1.4687,1.4675,1.4655,1.4647,1.4627,1.4615,1.4599,1.4573,1.4566,1.4556,1.4542,1.4544,1.4544,1.4542,1.4543,1.4566,1.4538,1.4538,1.4538,1.4538,0,1.4834,1.4828,1.479,1.4784,1.4775,1.4747,1.4739,1.4722,1.47,1.4688,1.4663,1.4653,1.462,1.4605,1.4584,1.4571,1.4566,1.4554,1.4548,1.4555,1.4557,1.4548,1.4546,1.4538,1.4538,1.4538,1.4538,0,1.4868,1.4842,1.4829,1.4796,1.4787,1.4783,1.4754,1.4745,1.4726,1.4711,1.4706,1.4674,1.4655,1.4628,1.4601,1.4587,1.4576,1.4568,1.4584,1.458,1.4583,1.4583,1.4601,1.4601,1.4574,1.4575,1.4575,0,1.4882,1.4877,1.4843,1.4833,1.4819,1.4804,1.4792,1.4763,1.4751,1.4723,1.4718,1.4697,1.4678,1.4649,1.4623,1.4601,1.4592,1.4599,1.4588,1.4595,1.4589,1.459,1.4588,1.4602,1.4602,1.4603,1.4603,0,1.4909,1.4896,1.488,1.4858,1.4845,1.4826,1.4807,1.48,1.4767,1.4755,1.4735,1.4721,1.4692,1.4671,1.4646,1.4629,1.461,1.4607,1.4606,1.4612,1.4621,1.4615,1.459,1.4606,1.4606,1.4606,1.4605,1.4605,1.4932,1.4925,1.49,1.4882,1.4864,1.4846,1.4836,1.4814,1.4798,1.4772,1.4756,1.4737,1.4711,1.4675,1.4659,1.4642,1.4634,1.4634,1.4633,1.4633,1.4635,1.4625,1.4638,1.4638,1.4637,1.4637,1.4637,0,1.4956,1.4938,1.4922,1.4895,1.488,1.4864,1.4841,1.483,1.4813,1.4791,1.4773,1.4749,1.4728,1.47,1.4676,1.4668,1.4659,1.4663,1.4663,1.4659,1.4644,1.4646,1.4671,1.4671,1.4671,1.4671,1.4671,1.4671,1.4966,1.4953,1.4937,1.4914,1.4896,1.4877,1.4865,1.4848,1.483,1.4804,1.4787,1.4769,1.4743,1.4718,1.4697,1.4689,1.4681,1.4687,1.4677,1.4663,1.466,1.4657,1.4659,1.4686,1.4686,1.4693,1.4693,1.4693]},{"header":{"parameterUnit":"m.s-1","parameterCategory":1,"la1":30.2991,"la2":30.254,"lo1":-89.0895,"lo2":-89.0444,"dy":0.0017,"dx":0.0017,"nx":28,"ny":28,"refTime":"2025-09-02T21:00:00:Z","depth":0,"parameterNumber":3,"parameterNumberName":"V-component_of_WINDS"},"data":[0,0,0,0,0,0,0,0,0,0,0,0,0,0,0,0,0,0,0,0,0,0,0,0,0,0,0,0,0,0,0,0,0,0,0,0,0,0,0,0,0,0,0,0,0,0,0,0,0,0,0,0,0,0,0,0,0,0,2.4516,2.4517,0,2.4569,2.4569,2.457,2.4555,2.4554,2.4553,2.4552,2.4603,2.4606,2.4608,0,0,0,0,0,0,0,0,0,0,0,0,0,2.4398,2.44,2.4516,2.4517,2.4517,2.4569,2.4569,2.457,2.4555,2.4554,2.4553,2.4552,2.4603,2.4605,2.4608,0,0,0,0,0,0,0,0,0,0,0,0,0,2.445,2.4401,2.4516,2.4516,2.4517,2.4568,2.4569,2.457,2.4556,2.4554,2.4553,2.4551,2.4602,2.4605,2.4609,2.4662,0,0,2.4619,2.4621,0,0,0,0,0,0,0,0,2.4447,2.4454,2.4516,2.4516,2.4517,2.4554,2.4547,2.4601,2.4556,2.4541,2.4552,2.455,2.4588,2.4593,2.4606,2.4665,2.4667,2.462,2.4622,2.4623,2.4624,0,0,0,0,0,0,0,2.4443,2.4452,2.4537,2.4516,2.4517,2.4512,2.4518,2.4557,2.4573,2.4542,2.4541,2.4548,2.4588,2.4603,2.4607,2.4668,2.462,2.4623,2.4625,2.4626,2.4769,2.4771,0,0,0,0,0,0,2.444,2.4449,2.4535,2.4538,2.4477,2.4516,2.4522,2.4544,2.4572,2.4575,2.4549,2.4547,2.4597,2.4603,2.4609,2.4671,2.4623,2.4627,2.4629,2.4768,2.477,2.4772,0,0,0,0,0,0,2.4437,2.4448,2.4533,2.4493,2.4504,2.4519,2.4544,2.4545,2.456,2.4578,2.458,2.4561,2.4596,2.4604,2.4648,2.4673,2.4628,2.4631,2.4766,2.4768,2.4771,2.4797,0,0,0,0,0,0,2.4434,2.4447,2.4469,2.4494,2.4506,2.4573,2.4545,2.4548,2.4566,2.4564,2.4589,2.4592,2.4596,2.4643,2.4652,2.4677,2.4634,2.4764,2.4767,2.477,2.4794,2.48,2.4806,0,0,0,0,0,2.443,2.4474,2.447,2.448,2.4534,2.4575,2.4581,2.4585,2.4568,2.4589,2.46,2.4591,2.4669,2.4648,2.4658,2.4684,2.4762,2.4766,2.477,2.4792,2.4799,2.4806,0,0,0,0,0,0,2.4451,2.4478,2.4473,2.4527,2.4549,2.4572,2.4599,2.4594,2.462,2.4616,2.4619,2.4625,2.467,2.4682,2.4658,2.4735,2.4713,2.4719,2.4726,2.4733,2.4739,2.4734,2.4637,0,0,0,0,0,2.4462,2.4494,2.4515,2.4561,2.4572,2.4584,2.4602,2.4603,2.4625,2.4634,2.4648,2.4669,2.4697,2.4716,2.4744,2.4796,2.48,2.4819,2.4824,2.4829,2.4833,2.4859,2.4866,2.4784,2.4784,2.4784,0,0,2.4485,2.4503,2.4523,2.4565,2.4582,2.4614,2.4591,2.4626,2.4649,2.4639,2.4681,2.4692,2.4716,2.4763,2.4785,2.4774,2.4857,2.4834,2.4837,2.4839,2.4863,2.4871,2.4878,2.4787,2.4786,2.4786,0,0,2.4542,2.4561,2.4599,2.4616,2.4642,2.4649,2.4658,2.4682,2.4689,2.4732,2.4724,2.475,2.4801,2.4817,2.4832,2.4892,2.4884,2.4901,2.493,2.4955,2.4962,2.4967,2.4986,2.4994,2.4906,2.4906,2.4906,0,2.4567,2.4615,2.4619,2.4654,2.4672,2.4664,2.4702,2.4718,2.4751,2.4762,2.475,2.4811,2.4827,2.4877,2.4891,2.4904,2.4913,2.4898,2.4961,2.4966,2.4972,2.499,2.4997,2.4908,2.4908,2.4908,2.4907,0,2.4643,2.4676,2.4704,2.4736,2.4757,2.4793,2.4801,2.4821,2.482,2.4828,2.487,2.4888,2.4918,2.493,2.493,2.4979,2.4971,2.496,2.4937,2.4981,2.4998,2.5006,2.491,2.491,2.4909,2.4909,0,0,2.4716,2.4748,2.4758,2.4771,2.4798,2.4823,2.4858,2.4887,2.4903,2.4926,2.4954,2.4995,2.4984,2.5001,2.5002,2.5024,2.5067,2.5009,2.501,2.5017,2.512,2.5127,2.5135,2.5063,2.5064,2.5065,2.5117,0,2.4773,2.4835,2.4839,2.4894,2.4923,2.4915,2.4945,2.4964,2.4971,2.4996,2.5004,2.5033,2.5017,2.5027,2.5048,2.5057,2.5088,2.5054,2.5086,2.5087,2.5079,2.5145,2.5153,2.5202,2.5124,2.5126,2.5126,0,2.4849,2.4874,2.4932,2.4952,2.4964,2.4991,2.5017,2.5042,2.5062,2.5065,2.5083,2.508,2.5113,2.509,2.5135,2.5112,2.5125,2.5131,2.5133,2.5135,2.5108,2.5146,2.5218,2.5224,2.5137,2.5137,2.5136,0,2.4893,2.4941,2.4981,2.4993,2.5018,2.5036,2.5048,2.5066,2.5083,2.5105,2.5115,2.5141,2.5155,2.5174,2.5178,2.5161,2.5221,2.5199,2.5223,2.5223,2.5235,2.5234,2.5308,2.5247,2.5247,2.5247,2.5247,0,2.4956,2.4991,2.5,2.5025,2.5063,2.5066,2.5104,2.5113,2.513,2.5154,2.515,2.5173,2.5177,2.52,2.5203,2.5237,2.5244,2.5247,2.5247,2.5246,2.5246,2.5254,2.525,2.5249,2.5249,2.5248,2.5248,0,2.5011,2.5019,2.5062,2.5082,2.5087,2.5114,2.5131,2.5153,2.516,2.5191,2.5199,2.5209,2.5236,2.5241,2.5274,2.5275,2.5316,2.5314,2.5309,2.5308,2.5332,2.5329,2.5411,2.5421,2.5356,2.5357,2.5358,0,2.505,2.5076,2.5099,2.5115,2.5127,2.5154,2.5171,2.5174,2.5191,2.5215,2.5234,2.526,2.5282,2.5325,2.5334,2.5358,2.5355,2.5382,2.5359,2.5356,2.5353,2.535,2.5352,2.5386,2.5387,2.5388,2.5388,0,2.5117,2.5119,2.5144,2.5169,2.5189,2.5209,2.5228,2.5241,2.5247,2.5266,2.5294,2.531,2.5343,2.5368,2.5392,2.5401,2.5395,2.5396,2.5402,2.5401,2.5396,2.5397,2.532,2.5394,2.5393,2.5393,2.5392,2.5392,2.5163,2.5186,2.5204,2.5231,2.5245,2.5263,2.5284,2.5293,2.5316,2.5343,2.5343,2.5373,2.539,2.5421,2.5432,2.5454,2.5445,2.5455,2.5457,2.5459,2.546,2.5394,2.5458,2.5458,2.5458,2.5458,2.5458,0,2.5228,2.5239,2.5264,2.529,2.531,2.5303,2.5323,2.534,2.5367,2.5383,2.5404,2.5434,2.5459,2.547,2.5493,2.5508,2.5506,2.5514,2.5512,2.5514,2.5468,2.5459,2.5516,2.5516,2.5516,2.5516,2.5516,2.5516,2.5264,2.53,2.5304,2.5347,2.5358,2.5387,2.5398,2.5413,2.5426,2.546,2.5481,2.5488,2.5501,2.5525,2.5546,2.5549,2.5557,2.5566,2.5567,2.5523,2.5517,2.5512,2.5503,2.5568,2.5568,2.5611,2.5611,2.5611]}]]